Weather History for KCQX - January, 2014

Change the Weather History Date:

Wednesday, January 22, 2014

  Actual Average Record
Temperature  
Mean Temperature 20 °F -  
Max Temperature 27 °F 33 °F 49 °F (1987)
Min Temperature 14 °F 21 °F -1 °F (1976)
Degree Days  
Heating Degree Days 44    
Moisture  
Dew Point 17 °F    
Average Humidity 78    
Maximum Humidity 89    
Minimum Humidity 57    
Precipitation  
Precipitation 0.30 in - - ()
Sea Level Pressure  
Sea Level Pressure 29.63 in    
Wind  
Wind Speed 14 mph (North)    
Max Wind Speed 18 mph    
Max Gust Speed 37 mph    
Visibility 3 miles    
Events Fog , Snow    
Averages and records for this station are not official NWS values.
T = Trace of Precipitation, MM = Missing Value Source: NWS Daily Summary

Daily Weather History Graph

Daily Weather History Graph

Search for Another Location

Airport or City:

Trip Planner

Search our weather history database for the weather conditions in past years. The results will help you decide how hot, cold, wet, or windy it might be!

Date:

Astronomy

Jan. 22, 2014 Rise Set
Actual Time 7:00 AM EST 4:42 PM EST
Civil Twilight 6:30 AM EST 5:13 PM EST
Nautical Twilight 5:56 AM EST 5:47 PM EST
Astronomical Twilight 5:23 AM EST 6:20 PM EST
Moon 11:18 PM EST (1/22) 9:54 AM EST (1/22)
Length of Visible Light 10h 42m
Length of Day
9h 42m
Waning Gibbous, 65% of the Moon is Illuminated
Jan 22
Waning Gibbous
Jan 24
Last Quarter
Jan 30
New
Feb 6
First Quarter
Feb 14
Full

Hourly Weather History & Observations

Time (EST) Temp. Windchill Dew Point Humidity Pressure Visibility Wind Dir Wind Speed Gust Speed Precip Events Conditions
12:07 AM 26.1 °F 12.7 °F 19.9 °F 78% 29.73 in 1.8 mi NE 18.4 mph 29.9 mph 0.00 in Snow Light Snow
12:52 AM 25.0 °F 13.1 °F 21.0 °F 85% 29.73 in 1.0 mi NNE 13.8 mph 24.2 mph 0.01 in Snow Light Snow
1:00 AM 25.0 °F 12.6 °F 19.9 °F 81% 29.70 in 1.0 mi NNE 15.0 mph 26.5 mph 0.01 in Snow Light Snow
1:36 AM 26.1 °F 14.0 °F 21.9 °F 84% 29.70 in 1.5 mi NE 15.0 mph 26.5 mph 0.01 in Snow Light Snow
1:45 AM 26.1 °F 14.0 °F 21.0 °F 81% 29.69 in 2.0 mi NNE 15.0 mph 31.1 mph 0.01 in Snow Light Snow
1:52 AM 27.0 °F 14.3 °F 21.0 °F 78% 29.70 in 3.0 mi NNE 17.3 mph 31.1 mph 0.01 in Snow Light Snow
1:59 AM 27.0 °F 14.7 °F 21.0 °F 78% 29.68 in 2.5 mi NNE 16.1 mph 31.1 mph 0.00 in Snow Light Snow
2:12 AM 27.0 °F 16.1 °F 21.9 °F 81% 29.67 in 1.8 mi NNE 12.7 mph 32.2 mph 0.01 in Snow Light Snow
2:52 AM 27.0 °F 15.2 °F 21.0 °F 78% 29.66 in 2.0 mi NNE 15.0 mph 33.4 mph 0.01 in Snow Light Snow
3:04 AM 27.0 °F 15.2 °F 21.0 °F 78% 29.65 in 3.0 mi NNE 15.0 mph 28.8 mph 0.00 in Snow Light Snow
3:12 AM 27.0 °F 14.7 °F 21.0 °F 78% 29.65 in 2.0 mi NNE 16.1 mph 34.5 mph 0.00 in Snow Light Snow
3:30 AM 27.0 °F 14.7 °F 21.0 °F 78% 29.63 in 3.0 mi NNE 16.1 mph 33.4 mph 0.00 in Snow Light Snow
3:52 AM 27.0 °F 15.2 °F 21.0 °F 78% 29.61 in 2.5 mi NNE 15.0 mph 31.1 mph 0.01 in Snow Light Snow
4:02 AM 27.0 °F 14.7 °F 21.0 °F 78% 29.59 in 1.5 mi NNE 16.1 mph 31.1 mph 0.00 in Snow Light Snow
4:14 AM 27.0 °F 13.9 °F 21.0 °F 78% 29.59 in 2.0 mi NNE 18.4 mph 32.2 mph 0.00 in Snow Light Snow
4:34 AM 26.1 °F 12.7 °F 21.0 °F 81% 29.61 in 1.8 mi NNE 18.4 mph 35.7 mph 0.01 in Snow Light Snow
4:52 AM 26.1 °F 13.1 °F 21.0 °F 81% 29.61 in 1.2 mi NNE 17.3 mph 27.6 mph 0.02 in Snow Light Snow
5:04 AM 26.1 °F 13.6 °F 21.0 °F 81% 29.60 in 0.8 mi NNE 16.1 mph 31.1 mph 0.01 in Snow Light Snow
5:24 AM 25.0 °F 11.7 °F 21.9 °F 88% 29.60 in 0.5 mi NNE 17.3 mph 33.4 mph 0.03 in Fog , Snow Snow
5:33 AM 25.0 °F 14.2 °F 21.9 °F 88% 29.59 in 0.2 mi NNE 11.5 mph 31.1 mph 0.03 in Fog , Snow Snow
5:52 AM 25.0 °F 11.7 °F 21.9 °F 88% 29.58 in 0.5 mi NNE 17.3 mph 28.8 mph 0.05 in Fog , Snow Snow
6:22 AM 25.0 °F 11.7 °F 21.0 °F 85% 29.59 in 0.8 mi NNE 17.3 mph 29.9 mph 0.01 in Snow Light Snow
6:32 AM 25.0 °F 11.7 °F 19.9 °F 81% 29.58 in 1.0 mi NNE 17.3 mph 36.8 mph 0.01 in Snow Light Snow
6:50 AM 24.8 °F 12.9 °F 21.2 °F 86% 29.60 in 0.8 mi North 13.8 mph 26.5 mph 0.02 in Snow Light Snow
6:52 AM 24.1 °F 11.0 °F 21.0 °F 88% 29.61 in 0.5 mi North 16.1 mph 26.5 mph 0.02 in Fog , Snow Snow
7:13 AM 23.0 °F 12.4 °F 19.9 °F 88% 29.59 in 0.5 mi North 10.4 mph 24.2 mph 0.01 in Fog , Snow Snow
7:33 AM 23.0 °F 9.2 °F 19.9 °F 88% 29.58 in 0.2 mi North 17.3 mph 31.1 mph 0.03 in Fog , Snow Snow
7:52 AM 21.9 °F 7.8 °F 19.0 °F 89% 29.57 in 0.2 mi North 17.3 mph 28.8 mph 0.05 in Fog , Snow Snow
8:52 AM 21.9 °F 10.4 °F 18.0 °F 85% 29.55 in 0.2 mi North 11.5 mph 28.8 mph 0.05 in Fog , Snow Snow
9:21 AM 21.9 °F 8.2 °F 18.0 °F 85% 29.53 in 0.2 mi NNE 16.1 mph 29.9 mph 0.01 in Fog , Snow Snow
9:52 AM 21.9 °F 8.7 °F 18.0 °F 85% 29.53 in 0.2 mi North 15.0 mph 29.9 mph 0.02 in Fog , Snow Snow
10:11 AM 21.9 °F 10.4 °F 19.0 °F 89% 29.50 in 0.2 mi North 11.5 mph 27.6 mph 0.01 in Fog , Snow Heavy Snow
10:44 AM 21.9 °F 9.2 °F 18.0 °F 85% 29.50 in 0.2 mi North 13.8 mph 27.6 mph 0.03 in Fog , Snow Light Snow
10:52 AM 21.9 °F 10.4 °F 17.1 °F 82% 29.50 in 0.5 mi North 11.5 mph 27.6 mph 0.03 in Snow Snow
11:52 AM 21.9 °F 9.8 °F 17.1 °F 82% 29.48 in 0.5 mi North 12.7 mph 25.3 mph 0.01 in Snow Snow
12:08 PM 21.9 °F 11.0 °F 18.0 °F 85% 29.48 in 0.2 mi North 10.4 mph 25.3 mph 0.00 in Fog , Snow Snow
12:36 PM 21.0 °F 8.6 °F 16.0 °F 81% 29.49 in 0.5 mi NNW 12.7 mph 24.2 mph 0.00 in Snow Snow
12:45 PM 21.9 °F 11.0 °F 16.0 °F 78% 29.50 in 0.5 mi North 10.4 mph 25.3 mph 0.00 in Snow Snow
12:52 PM 21.9 °F 10.4 °F 16.0 °F 78% 29.51 in 0.8 mi North 11.5 mph 24.2 mph 0.00 in Snow Light Snow
1:52 PM 21.0 °F 9.3 °F 16.0 °F 81% 29.54 in 1.0 mi NNW 11.5 mph 24.2 mph 0.01 in Snow Light Snow
1:58 PM 21.0 °F 10.6 °F 16.0 °F 81% 29.54 in 0.8 mi North 9.2 mph 24.2 mph 0.00 in Snow Light Snow
2:52 PM 21.0 °F 9.9 °F 15.1 °F 78% 29.59 in 1.2 mi NNW 10.4 mph 20.7 mph 0.00 in Snow Light Snow
3:49 PM 21.2 °F 10.1 °F 14.0 °F 74% 29.62 in 3.0 mi North 10.4 mph 19.6 mph 0.00 in Snow Light Snow
3:52 PM 21.0 °F 8.6 °F 14.0 °F 74% 29.63 in 4.0 mi NNW 12.7 mph 25.3 mph 0.00 in Snow Light Snow
4:37 PM 21.0 °F 9.3 °F 10.9 °F 65% 29.65 in 9.0 mi North 11.5 mph 24.2 mph 0.00 in   Overcast
4:52 PM 21.0 °F 12.4 °F 10.9 °F 65% 29.67 in 10.0 mi Variable 6.9 mph 17.3 mph 0.00 in   Overcast
5:10 PM 21.0 °F 10.6 °F 10.9 °F 65% 29.67 in 10.0 mi North 9.2 mph 16.1 mph N/A   Overcast
5:21 PM 21.9 °F 10.4 °F 10.9 °F 63% 29.68 in 10.0 mi NNW 11.5 mph 21.9 mph N/A   Overcast
5:52 PM 21.9 °F 10.4 °F 10.0 °F 60% 29.70 in 10.0 mi NNW 11.5 mph 17.3 mph N/A   Overcast
6:52 PM 19.0 °F 11.1 °F 9.0 °F 65% 29.73 in 10.0 mi Variable 5.8 mph - N/A   Overcast
7:52 PM 19.9 °F 12.1 °F 7.0 °F 57% 29.76 in 10.0 mi Variable 5.8 mph - N/A   Overcast
8:52 PM 18.0 °F 9.8 °F 6.1 °F 60% 29.80 in 10.0 mi Variable 5.8 mph - N/A   Overcast
9:52 PM 14.0 °F 5.1 °F 3.9 °F 64% 29.83 in 10.0 mi West 5.8 mph - N/A   Overcast
10:24 PM 15.1 °F 6.4 °F 5.0 °F 64% 29.83 in 10.0 mi West 5.8 mph - N/A   Overcast
10:52 PM 16.0 °F 7.4 °F 6.1 °F 65% 29.83 in 10.0 mi NW 5.8 mph - N/A   Overcast
11:52 PM 16.0 °F 6.3 °F 8.1 °F 71% 29.86 in 10.0 mi WNW 6.9 mph - N/A   Overcast